Theta_e
337 339 340 341 342 344 343 340 340 339 339 338 338 335 334 334 334 334 333 331 327 321 313 308 308 316 318 318 318 320 320 319
336 339 340 341 342 344 342 341 341 339 339 336 337 336 336 334 333 330 322 313 308 307 306 306 310 317 317 317 317 317 317 317
335 338 338 338 340 339 339 341 341 340 338 338 337 334 327 331 327 317 309 308 306 304 304 306 307 316 314 313 312 312 310 310
333 336 336 338 338 335 338 341 341 339 338 335 336 333 329 325 314 308 307 305 304 303 304 304 305 308 310 308 305 306 306 306
331 334 335 337 338 334 333 337 340 340 337 338 336 331 324 316 310 307 304 303 303 304 303 302 302 306 306 306 305 304 306 304
330 333 333 336 336 332 332 339 339 339 338 338 333 320 317 312 306 304 303 303 303 302 302 302 302 305 304 302 304 304 304 305
330 332 332 334 333 332 331 341 339 339 338 335 330 320 314 306 305 308 309 308 306 302 301 300 301 301 300 302 301 304 305 304
330 331 332 332 330 332 335 338 340 337 332 326 317 309 306 304 306 309 308 308 308 303 299 299 301 299 299 299 299 302 305 305
330 331 330 329 329 333 336 337 335 330 318 310 306 305 306 308 307 306 305 305 303 299 299 298 299 299 299 299 300 303 303 304
329 330 329 328 325 333 336 334 324 314 307 306 306 305 305 304 302 300 299 299 299 298 298 299 299 300 299 299 301 303 304 303
327 328 328 325 321 329 329 322 317 308 307 306 305 304 303 301 300 299 299 299 298 298 298 299 299 298 298 298 302 303 303 302
325 326 325 322 319 317 314 310 309 307 306 305 305 303 301 300 300 299 299 298 298 297 298 297 297 297 297 297 301 301 300 301
324 324 321 320 317 315 313 310 308 307 305 304 303 301 300 300 300 299 298 297 297 296 295 297 297 297 297 297 298 298 299 300
322 321 319 317 316 313 311 309 308 306 304 303 301 300 300 300 299 298 297 296 295 295 297 297 297 297 297 296 297 296 298 298
321 320 317 316 314 312 310 308 306 304 304 302 300 300 299 299 298 297 296 295 295 297 297 297 297 296 296 296 296 296 296 297
320 318 316 314 312 310 308 306 304 304 303 302 300 300 299 298 297 296 294 295 297 297 297 296 296 296 296 296 296 296 296 297
318 317 315 314 311 308 306 304 304 303 302 300 300 299 298 297 296 294 295 297 297 296 296 296 296 297 296 296 296 296 296 297
317 316 315 313 309 306 305 304 303 302 301 299 299 298 297 296 295 295 296 296 296 296 296 296 296 296 296 296 296 295 295 295
317 316 314 311 307 305 304 303 302 301 299 299 299 297 299 298 295 295 296 296 296 296 296 296 296 296 296 295 295 295 295 294
Wind_Speed
24 22 21 20 21 22 22 25 27 25 23 22 22 20 17 14 13 11 10 9 7 5 4 7 7 5 5 6 8 9 11 13
23 22 21 20 22 23 26 27 30 29 29 26 23 21 18 17 15 13 10 7 4 3 5 6 5 4 6 8 9 11 11 13
28 25 23 24 25 27 29 29 32 29 28 25 21 18 16 17 16 13 10 6 4 4 4 4 5 4 8 10 11 10 10 12
32 30 27 25 26 29 31 30 31 28 25 28 26 23 19 18 16 11 7 5 3 4 4 5 8 6 5 7 10 11 12 12
33 33 30 29 27 29 30 31 33 34 32 27 27 25 21 16 15 10 7 5 3 2 4 6 7 6 7 7 8 10 9 12
34 36 32 28 26 31 33 36 36 35 34 33 28 20 19 19 15 12 9 6 4 4 4 6 7 5 7 12 10 10 11 13
31 32 30 29 28 31 32 34 37 36 35 30 30 26 23 19 15 12 9 6 3 2 6 8 9 11 14 13 13 12 13 14
30 34 34 32 33 34 34 37 41 41 36 32 29 24 20 17 14 11 9 6 4 5 8 10 12 16 15 15 16 15 15 17
31 35 34 32 34 38 39 40 41 39 35 33 29 24 19 15 13 10 8 5 4 8 10 13 15 15 15 17 18 16 18 18
30 32 32 30 31 40 44 44 41 40 37 32 27 23 18 15 12 8 6 4 7 10 13 15 15 16 16 18 17 17 17 18
27 31 32 31 30 39 42 42 42 39 34 30 25 21 17 14 10 7 4 6 10 13 14 14 15 16 18 18 15 15 16 17
26 30 32 32 32 34 39 43 40 34 32 29 25 21 17 13 8 5 6 9 11 13 14 15 16 17 16 16 14 14 15 15
24 29 31 34 36 36 36 33 32 32 30 27 23 20 15 10 7 6 8 10 13 14 14 14 14 15 15 14 13 13 14 14
25 31 35 37 38 37 36 34 31 30 29 27 23 18 14 11 8 8 10 12 13 12 12 13 13 13 13 14 14 14 14 15
27 31 34 37 39 39 37 34 31 29 28 26 23 19 15 10 9 10 12 11 10 10 12 12 12 11 11 12 14 15 16 16
29 32 35 38 39 38 36 34 32 31 29 26 23 19 14 10 9 10 9 8 9 10 10 10 9 9 10 13 17 19 19 20
30 31 34 39 40 40 37 35 33 31 29 26 23 18 12 8 7 7 7 8 9 8 8 8 7 8 14 18 21 22 22 23
33 36 38 42 43 42 41 36 34 30 28 26 21 14 9 7 6 6 8 8 7 7 8 9 9 9 17 20 24 25 25 25
31 32 35 38 39 38 37 35 34 31 27 23 17 11 6 5 6 9 8 6 6 8 10 11 12 15 17 20 23 23 23 24
Wind_Direction
217 211 206 203 199 193 190 193 195 189 190 184 181 180 184 196 210 213 208 212 218 233 271 291 299 304 312 311 313 314 320 316
221 212 205 198 196 190 191 191 195 189 195 186 187 185 189 190 196 196 196 195 203 246 278 298 315 335 326 331 332 324 324 320
218 212 205 201 197 201 198 195 199 194 196 197 193 187 175 189 189 186 191 206 246 281 303 328 338 347 336 336 339 337 326 329
218 211 205 199 200 203 201 196 201 189 189 183 189 189 185 183 183 185 203 232 271 306 322 329 337 355 352 347 342 344 332 331
221 212 204 202 200 202 202 201 199 192 202 206 199 192 182 178 181 195 207 221 245 289 323 336 343 356 348 343 336 332 320 319
216 211 206 202 196 201 201 198 203 202 205 204 193 177 184 186 188 192 196 203 229 282 318 333 334 337 324 324 317 312 318 315
217 212 203 199 196 201 201 199 197 201 200 203 195 188 189 186 184 179 175 177 195 269 318 318 316 316 318 314 309 306 304 300
208 205 201 197 194 201 195 197 198 191 189 189 191 190 186 183 177 170 166 166 176 275 305 311 311 311 301 295 300 298 295 292
209 203 202 199 192 197 192 193 187 185 184 182 180 182 179 175 174 174 174 186 235 294 301 306 300 291 290 295 299 294 293 294
209 201 200 196 185 190 189 187 183 182 180 180 179 180 183 183 183 182 198 247 286 296 300 296 288 290 295 296 296 295 293 295
204 198 194 191 182 183 188 187 185 182 180 180 180 181 182 181 183 195 236 286 295 295 293 289 289 295 298 297 294 291 293 296
201 195 191 188 179 176 180 182 183 179 181 181 183 183 182 183 191 224 276 288 287 288 288 289 295 299 299 297 293 295 298 299
193 191 190 188 182 178 178 177 177 180 180 181 182 184 184 188 209 245 270 276 282 286 287 295 298 300 301 300 302 301 306 304
186 188 190 189 184 179 178 177 177 176 181 184 184 185 186 198 223 251 267 279 283 286 293 296 300 302 305 304 306 309 307 305
184 188 191 190 187 180 179 176 175 175 179 180 185 187 193 206 237 257 272 279 281 289 293 297 301 304 306 308 310 310 309 303
192 192 191 190 186 181 178 175 174 177 177 178 184 191 197 218 245 265 276 280 285 286 290 295 298 303 298 310 311 305 302 300
199 194 191 188 186 180 177 175 174 174 177 180 187 190 201 226 254 270 281 284 285 284 282 284 292 305 299 302 303 308 308 305
199 197 192 188 187 180 178 173 172 171 174 181 185 190 204 229 253 273 280 275 276 275 276 281 288 289 297 300 306 312 311 310
200 194 191 188 185 178 171 169 170 172 175 179 184 187 215 244 261 266 260 260 261 265 275 288 292 296 299 306 316 319 319 318